CWGZ

Grise Fiord  Airport

Canada
Issued Wind Visibility Ceiling Temperature Dew Point Humidity Barometer
Nov-23
01:00 UTC
060°
10 KTS
Gust 27 KTS
10 miles Broken
3,000' AGL
-4° C
25° F
-9° C
16° F
69% 30.18" Hg
1022.7 hPa
MVFR
Nov-23
00:38 UTC
Varies @16 KTS 15 miles Broken
3,000' AGL
-4° C
25° F
-10° C
14° F
63% 30.18" Hg
1022.6 hPa
MVFR
Nov-23
00:00 UTC
Varies @11 KTS 15 miles Broken
19,000' AGL
-3° C
27° F
-11° C
12° F
54% 30.19" Hg
1022.8 hPa
VFR
Nov-22
23:00 UTC
110°
9 KTS
Gust 27 KTS
15 miles Broken
19,000' AGL
-2° C
28° F
-15° C
F
37% 30.16" Hg
1022 hPa
VFR
Nov-22
22:00 UTC
030°
8 KTS
Gust 19 KTS
10 miles Broken
19,000' AGL
-5° C
23° F
-13° C
F
54% 30.17" Hg
1022.4 hPa
VFR
Nov-22
21:00 UTC
Varies @12 KTS 15 miles Broken
20,000' AGL
-3° C
27° F
-18° C
-0° F
31% 30.17" Hg
1022.4 hPa
VFR
Nov-22
20:00 UTC
060°
19 KTS
Gust 36 KTS
15 miles Broken
20,000' AGL
-3° C
27° F
-17° C
F
33% 30.16" Hg
1021.8 hPa
VFR
Nov-22
19:45 UTC
Varies @17 KTS 15 miles Broken
20,000' AGL
-4° C
25° F
-17° C
F
36% 30.17" Hg
1022.2 hPa
VFR
Nov-22
19:00 UTC
060°
11 KTS
Gust 24 KTS
15 miles Broken
20,000' AGL
-4° C
25° F
-17° C
F
36% 30.19" Hg
1023.1 hPa
VFR
Nov-22
18:00 UTC
110°
13 KTS
Gust 32 KTS
15 miles Broken
25,000' AGL
-4° C
25° F
-18° C
-0° F
33% 30.17" Hg
1022.3 hPa
VFR
Nov-22
17:00 UTC
100°
11 KTS
Gust 21 KTS
15 miles Broken
24,000' AGL
-4° C
25° F
-17° C
F
36% 30.15" Hg
1021.7 hPa
VFR